TimeEDT,TemperatureF,Dew PointF,Humidity,Sea Level PressureIn,VisibilityMPH,Wind Direction,Wind SpeedMPH,Gust SpeedMPH,PrecipitationIn,Events,Conditions,WindDirDegrees,DateUTC
12:15 AM,51.8,41.0,67,29.95,10.0,NNW,5.8,-,N/A,,Clear,330,2013-03-21 04:15:00
12:35 AM,51.8,39.2,62,29.95,10.0,NW,5.8,-,N/A,,Clear,320,2013-03-21 04:35:00
12:53 AM,50.0,36.0,59,29.94,-9999.0,NW,6.9,-,N/A,,Unknown,320,2013-03-21 04:53:00
12:55 AM,51.8,37.4,58,29.95,10.0,NNW,6.9,-,N/A,,Clear,330,2013-03-21 04:55:00
1:15 AM,51.8,37.4,58,29.95,10.0,NNW,6.9,-,N/A,,Clear,330,2013-03-21 05:15:00
1:35 AM,51.8,35.6,54,29.95,10.0,NNW,6.9,-,N/A,,Clear,330,2013-03-21 05:35:00
1:53 AM,48.9,34.0,56,29.95,-9999.0,NW,5.8,-,N/A,,Unknown,310,2013-03-21 05:53:00
2:15 AM,48.2,35.6,62,29.95,10.0,NNW,6.9,-,N/A,,Clear,330,2013-03-21 06:15:00
2:35 AM,46.4,35.6,66,29.95,10.0,NNW,4.6,-,N/A,,Clear,330,2013-03-21 06:35:00
2:53 AM,46.9,33.1,59,29.95,-9999.0,NW,3.5,-,N/A,,Unknown,320,2013-03-21 06:53:00
2:55 AM,46.4,35.6,66,29.95,10.0,Calm,Calm,-,N/A,,Clear,0,2013-03-21 06:55:00
3:15 AM,44.6,35.6,71,29.95,10.0,Calm,Calm,-,N/A,,Clear,0,2013-03-21 07:15:00
3:35 AM,44.6,35.6,71,29.95,10.0,Calm,Calm,-,N/A,,Clear,0,2013-03-21 07:35:00
3:53 AM,39.0,33.1,79,29.93,-9999.0,Calm,Calm,-,N/A,,Unknown,0,2013-03-21 07:53:00
3:55 AM,41.0,35.6,81,29.94,10.0,Calm,Calm,-,N/A,,Clear,0,2013-03-21 07:55:00
4:15 AM,41.0,35.6,81,29.93,10.0,Calm,Calm,-,N/A,,Clear,0,2013-03-21 08:15:00
4:35 AM,41.0,37.4,87,29.93,10.0,Calm,Calm,-,N/A,,Clear,0,2013-03-21 08:35:00
4:53 AM,37.9,33.1,83,29.93,-9999.0,WNW,4.6,-,N/A,,Unknown,300,2013-03-21 08:53:00
4:55 AM,37.4,35.6,93,29.94,10.0,NW,4.6,-,N/A,,Clear,310,2013-03-21 08:55:00
5:15 AM,42.8,37.4,81,29.93,10.0,NNW,4.6,-,N/A,,Clear,330,2013-03-21 09:15:00
5:35 AM,42.8,35.6,76,29.94,10.0,NNW,4.6,-,N/A,,Clear,340,2013-03-21 09:35:00
5:53 AM,39.9,32.0,73,29.95,-9999.0,NW,5.8,-,N/A,,Unknown,310,2013-03-21 09:53:00
5:55 AM,41.0,35.6,81,29.95,10.0,NW,5.8,-,N/A,,Clear,320,2013-03-21 09:55:00
6:15 AM,42.8,33.8,70,29.95,10.0,NNW,4.6,-,N/A,,Clear,330,2013-03-21 10:15:00
6:35 AM,42.8,33.8,70,29.96,10.0,NNW,6.9,-,N/A,,Clear,330,2013-03-21 10:35:00
6:53 AM,44.1,30.9,60,29.96,-9999.0,NW,8.1,-,N/A,,Unknown,320,2013-03-21 10:53:00
6:55 AM,44.6,33.8,66,29.97,10.0,NNW,8.1,-,N/A,,Clear,330,2013-03-21 10:55:00
7:15 AM,44.6,33.8,66,29.97,10.0,North,8.1,-,N/A,,Clear,350,2013-03-21 11:15:00
7:35 AM,44.6,32.0,61,29.98,10.0,North,9.2,-,N/A,,Clear,350,2013-03-21 11:35:00
7:53 AM,45.0,30.0,56,29.97,-9999.0,North,6.9,-,N/A,,Unknown,350,2013-03-21 11:53:00
7:55 AM,44.6,32.0,61,29.98,10.0,North,8.1,-,N/A,,Clear,350,2013-03-21 11:55:00
8:15 AM,46.4,32.0,57,29.98,10.0,North,9.2,-,N/A,,Clear,350,2013-03-21 12:15:00
8:35 AM,48.2,32.0,54,29.99,10.0,North,10.4,-,N/A,,Clear,350,2013-03-21 12:35:00
8:53 AM,48.9,30.0,48,29.99,-9999.0,North,12.7,18.4,N/A,,Unknown,350,2013-03-21 12:53:00
8:55 AM,50.0,32.0,50,29.99,10.0,North,9.2,-,N/A,,Clear,360,2013-03-21 12:55:00
9:15 AM,50.0,32.0,50,30.00,10.0,North,10.4,17.3,N/A,,Clear,350,2013-03-21 13:15:00
9:35 AM,51.8,32.0,47,30.00,10.0,North,10.4,19.6,N/A,,Clear,360,2013-03-21 13:35:00
9:53 AM,53.1,30.0,41,30.00,-9999.0,Variable,5.8,-,N/A,,Unknown,0,2013-03-21 13:53:00
9:55 AM,51.8,32.0,47,30.00,10.0,North,11.5,16.1,N/A,,Clear,10,2013-03-21 13:55:00
10:15 AM,53.6,28.4,38,30.01,10.0,North,12.7,21.9,N/A,,Clear,360,2013-03-21 14:15:00
10:35 AM,53.6,28.4,38,30.02,10.0,North,10.4,18.4,N/A,,Clear,360,2013-03-21 14:35:00
10:53 AM,55.9,24.1,29,30.02,-9999.0,North,10.4,20.7,N/A,,Unknown,350,2013-03-21 14:53:00
10:55 AM,55.4,24.8,31,30.02,10.0,North,11.5,18.4,N/A,,Clear,360,2013-03-21 14:55:00
11:15 AM,55.4,24.8,31,30.01,10.0,North,11.5,-,N/A,,Clear,360,2013-03-21 15:15:00
11:35 AM,57.2,24.8,29,30.02,10.0,NW,5.8,-,N/A,,Clear,320,2013-03-21 15:35:00
11:53 AM,59.0,24.1,26,30.01,-9999.0,NNW,9.2,18.4,N/A,,Unknown,340,2013-03-21 15:53:00
11:55 AM,59.0,24.8,27,30.01,10.0,North,9.2,-,N/A,,Clear,360,2013-03-21 15:55:00
12:15 PM,59.0,23.0,25,30.01,10.0,North,8.1,16.1,N/A,,Clear,10,2013-03-21 16:15:00
12:35 PM,60.8,24.8,25,30.02,10.0,WNW,13.8,18.4,N/A,,Clear,300,2013-03-21 16:35:00
12:53 PM,61.0,25.0,25,29.99,-9999.0,NW,9.2,-,N/A,,Unknown,310,2013-03-21 16:53:00
12:55 PM,60.8,26.6,27,30.00,10.0,NW,9.2,-,N/A,,Clear,320,2013-03-21 16:55:00
1:15 PM,62.6,23.0,22,29.99,10.0,WNW,8.1,-,N/A,,Clear,300,2013-03-21 17:15:00
1:35 PM,62.6,24.8,24,29.97,10.0,North,9.2,-,N/A,,Clear,350,2013-03-21 17:35:00
1:53 PM,64.0,25.0,23,29.95,-9999.0,Variable,6.9,-,N/A,,Unknown,0,2013-03-21 17:53:00
1:55 PM,64.4,26.6,24,29.96,10.0,NW,8.1,-,N/A,,Clear,310,2013-03-21 17:55:00
2:15 PM,64.4,23.0,21,29.95,10.0,NW,8.1,16.1,N/A,,Clear,310,2013-03-21 18:15:00
2:35 PM,64.4,23.0,21,29.94,10.0,North,3.5,16.1,N/A,,Clear,360,2013-03-21 18:35:00
2:53 PM,66.9,19.9,17,29.92,-9999.0,North,11.5,18.4,N/A,,Unknown,350,2013-03-21 18:53:00
2:55 PM,66.2,19.4,17,29.93,10.0,North,10.4,18.4,N/A,,Clear,350,2013-03-21 18:55:00
3:15 PM,64.4,21.2,19,29.94,10.0,NNW,8.1,-,N/A,,Clear,330,2013-03-21 19:15:00
3:35 PM,68.0,23.0,18,29.93,10.0,WNW,11.5,19.6,N/A,,Clear,290,2013-03-21 19:35:00
3:53 PM,66.9,23.0,19,29.91,-9999.0,West,12.7,-,N/A,,Unknown,280,2013-03-21 19:53:00
3:55 PM,68.0,23.0,18,29.93,10.0,WNW,11.5,17.3,N/A,,Clear,290,2013-03-21 19:55:00
4:15 PM,66.2,23.0,19,29.92,10.0,NW,9.2,-,N/A,,Clear,310,2013-03-21 20:15:00
4:35 PM,68.0,23.0,18,29.92,10.0,WNW,12.7,17.3,N/A,,Clear,290,2013-03-21 20:35:00
4:53 PM,66.9,23.0,19,29.91,-9999.0,NW,5.8,-,N/A,,Unknown,310,2013-03-21 20:53:00
4:55 PM,68.0,23.0,18,29.92,10.0,WNW,8.1,-,N/A,,Clear,290,2013-03-21 20:55:00
5:15 PM,66.2,24.8,21,29.92,10.0,NW,5.8,-,N/A,,Clear,310,2013-03-21 21:15:00
5:35 PM,66.2,23.0,19,29.92,10.0,NW,6.9,-,N/A,,Clear,320,2013-03-21 21:35:00
5:53 PM,66.0,23.0,20,29.91,-9999.0,NW,5.8,-,N/A,,Unknown,310,2013-03-21 21:53:00
5:55 PM,66.2,23.0,19,29.92,10.0,NW,8.1,-,N/A,,Clear,310,2013-03-21 21:55:00
6:15 PM,64.4,32.0,30,29.92,10.0,West,6.9,-,N/A,,Clear,260,2013-03-21 22:15:00
6:35 PM,62.6,35.6,37,29.92,10.0,WSW,9.2,-,N/A,,Clear,240,2013-03-21 22:35:00
6:53 PM,62.1,37.9,41,29.91,-9999.0,WSW,11.5,-,N/A,,Unknown,240,2013-03-21 22:53:00
6:55 PM,62.6,37.4,39,29.93,10.0,WSW,10.4,-,N/A,,Clear,250,2013-03-21 22:55:00
7:15 PM,60.8,41.0,48,29.93,10.0,WSW,10.4,-,N/A,,Clear,240,2013-03-21 23:15:00
7:35 PM,59.0,41.0,51,29.93,10.0,WSW,6.9,-,N/A,,Clear,250,2013-03-21 23:35:00
7:53 PM,55.0,39.0,55,29.92,-9999.0,WSW,5.8,-,N/A,,Unknown,250,2013-03-21 23:53:00
7:55 PM,55.4,41.0,58,29.93,10.0,West,4.6,-,N/A,,Clear,260,2013-03-21 23:55:00
8:15 PM,53.6,41.0,62,29.94,10.0,WSW,3.5,-,N/A,,Clear,240,2013-03-22 00:15:00
8:35 PM,53.6,42.8,67,29.94,10.0,Calm,Calm,-,N/A,,Clear,0,2013-03-22 00:35:00
8:53 PM,53.1,39.9,61,29.93,-9999.0,Calm,Calm,-,N/A,,Unknown,0,2013-03-22 00:53:00
8:55 PM,53.6,42.8,67,29.94,10.0,Calm,Calm,-,N/A,,Clear,0,2013-03-22 00:55:00
9:15 PM,51.8,42.8,71,29.94,10.0,Calm,Calm,-,N/A,,Clear,0,2013-03-22 01:15:00
9:35 PM,50.0,42.8,76,29.94,10.0,Calm,Calm,-,N/A,,Clear,0,2013-03-22 01:35:00
9:53 PM,48.9,39.9,71,29.94,-9999.0,Calm,Calm,-,N/A,,Unknown,0,2013-03-22 01:53:00
9:55 PM,50.0,42.8,76,29.95,10.0,Calm,Calm,-,N/A,,Clear,0,2013-03-22 01:55:00
10:15 PM,46.4,42.8,87,29.95,10.0,Calm,Calm,-,N/A,,Clear,0,2013-03-22 02:15:00
10:35 PM,46.4,42.8,87,29.96,10.0,Calm,Calm,-,N/A,,Clear,0,2013-03-22 02:35:00
10:53 PM,46.0,39.9,79,29.96,-9999.0,Calm,Calm,-,N/A,,Unknown,0,2013-03-22 02:53:00
10:55 PM,46.4,44.6,93,29.97,10.0,Calm,Calm,-,N/A,,Clear,0,2013-03-22 02:55:00
11:15 PM,46.4,44.6,93,29.97,10.0,Calm,Calm,-,N/A,,Clear,0,2013-03-22 03:15:00
11:35 PM,46.4,44.6,93,29.97,10.0,Calm,Calm,-,N/A,,Clear,0,2013-03-22 03:35:00
11:53 PM,45.0,39.9,82,29.96,-9999.0,Calm,Calm,-,N/A,,Unknown,0,2013-03-22 03:53:00
11:55 PM,44.6,42.8,93,29.97,10.0,Calm,Calm,-,N/A,,Clear,0,2013-03-22 03:55:00